Location: Pabrico
(37.5827°N, 122.0063°W)
Time: 23:44:20
(UTC+00:00)

DMSP B5D2-2 - Pass Details

Date: 13 April 2024
Orbit: 788 x 802 km, 98.3° (Epoch: 21 May)

Event Time Altitude Azimuth Distance (km) Brightness Sun altitude
Rises 12:10:39 0° 168° (SSE) 3,272 7.1 -16.6°
Reaches altitude 10° 12:12:58 10° 170° (S) 2,345 6.4 -16.2°
Maximum altitude 12:18:09 81° 257° (WSW) 803 4.0 -15.2°
Drops below altitude 10° 12:23:22 10° 345° (NNW) 2,357 6.6 -14.3°
Sets 12:25:42 0° 347° (NNW) 3,289 7.4 -13.9°
